Location: Vancouver
(49.2500°N, 123.1333°W)
Time: 00:22:33
(UTC-07:00)

Daily predictions for brighter satellites

Satellite Brightness Start Highest point End
(mag) Time Altitude Azimuth Time Altitude Azimuth Time Altitude Azimuth
BREEZE-M DEB (TANK) 2.2 00:00:09 10° W 00:02:44 81° SSW 00:09:47 10° ESE
Cosmos 2084 Rocket 3.3 00:00:39 10° NW 00:04:29 57° SW 00:04:46 55° SSW
Cosmos 2263 4.5 00:04:21 40° SSE 00:05:43 49° ESE 00:11:10 10° NE
Cosmos 1315 Rocket 2.6 00:06:41 67° SSE 00:07:08 78° E 00:11:05 10° NNE
Lacrosse 5 rocket 1.1 00:08:39 29° WSW 00:10:30 79° NW 00:14:13 10° NE
deb Kosmos-1763 4.0 00:06:48 10° NNW 00:10:43 80° WSW 00:11:04 71° S
Cosmos 1892 Rocket 3.7 00:08:12 10° NNW 00:12:33 65° W 00:13:32 49° SSW
USA 234 3.2 00:07:01 10° ENE 00:13:31 61° SE 00:18:24 18° SW
H-2A R/B 3.9 00:13:08 14° SW 00:16:14 22° W 00:20:19 10° NW
Cosmos 1633 3.1 00:18:21 47° WSW 00:18:58 53° WNW 00:22:37 10° N
Okean 2 3.5 00:15:12 10° NNW 00:19:22 66° W 00:20:02 55° SW
Cosmos 1346 Rocket 2.7 00:17:05 10° N 00:20:58 66° ENE 00:21:15 63° ESE
Cosmos 1992 Rocket 4.0 00:22:28 48° SSE 00:23:38 61° ESE 00:28:47 10° NNE
Cosmos 1833 4.1 00:18:45 10° NNW 00:24:25 84° ENE 00:26:22 43° SE
Cosmos 1818 3.8 00:24:58 45° SSE 00:25:46 49° ESE 00:31:02 10° NE
Cosmos 1025 Rocket 4.4 00:24:07 10° NNW 00:28:00 31° W 00:29:15 26° WSW
Cosmos 44 Rocket 3.4 00:23:36 10° NW 00:28:47 76° NE 00:30:23 44° SE
Cosmos 375 4.2 00:27:06 10° NW 00:31:17 67° SW 00:31:18 67° SW
Cosmos 1602 Rocket 3.5 00:27:29 10° N 00:31:58 76° E 00:32:41 60° SE
Cosmos 2100 Rocket 4.5 00:29:52 36° SE 00:32:01 49° E 00:38:07 10° NNE
Meteor 1-12 Rocket 4.5 00:30:45 42° SE 00:32:15 55° E 00:37:47 10° NNE
Lacrosse 5 1.9 00:28:53 10° WSW 00:33:59 80° NNW 00:39:07 10° NE
Cosmos 1626 Rocket 3.5 00:31:17 10° N 00:35:48 83° E 00:36:29 63° SSE
CZ-2C R/B 3.7 00:31:57 10° NE 00:36:30 29° E 00:37:25 27° ESE
Cosmos 2369 Rocket 2.3 00:34:53 31° SW 00:37:40 76° WNW 00:43:20 10° NNE
Cosmos 1400 Rocket 4.4 00:36:27 23° WSW 00:38:07 31° WNW 00:41:52 10° N
Cosmos 1536 4.2 00:40:24 26° WSW 00:41:39 31° WNW 00:45:15 10° N
Cosmos 1459 Rocket 4.2 00:40:22 39° SE 00:42:15 54° E 00:48:08 10° NNE
Cosmos 1455 Rocket 3.1 00:41:45 55° SW 00:42:32 69° W 00:46:53 10° N
CZ-4C R/B 3.2 00:42:35 66° W 00:42:35 66° W 00:46:16 10° NNW
Cosmos 1241 Rocket 4.5 00:36:13 10° NW 00:42:42 82° SW 00:45:15 40° SSE
Gblst 52 Del rocket 4.5 00:40:15 10° WSW 00:47:36 77° SSE 00:53:56 10° ENE
Cosmos 2227 Rocket 3.9 00:44:01 10° NNW 00:48:51 27° NE 00:53:39 10° ESE
Helios 1A Rocket 3.8 00:45:21 10° NNE 00:49:08 35° E 00:49:08 35° E
Cosmos 2219 3.3 00:43:54 10° NNW 00:49:33 71° ENE 00:51:36 40° SE
Cosmos 1605 Rocket 4.3 00:47:54 31° SW 00:50:58 62° WNW 00:57:21 10° N
ALOS 2 2.6 00:50:31 58° SW 00:51:03 64° WSW 00:55:25 10° NNW
Cosmos 1656 Rocket 4.5 00:51:24 33° ESE 00:52:08 34° ESE 00:57:10 10° NE
Cosmos 1066 Rocket 4.2 00:47:17 10° N 00:52:39 68° ENE 00:54:12 46° SE
Cosmos 2061 Rocket 4.2 00:51:59 41° SSE 00:54:11 65° E 01:00:32 10° NNE
Cosmos 44 3.7 00:49:57 10° NW 00:55:13 64° NE 00:57:11 36° ESE
SeaSat 1 4.3 00:54:58 10° E 00:59:00 26° NE 01:03:04 10° N
Cosmos 1975 2.7 01:00:42 83° S 01:00:51 90° SSE 01:04:57 10° N
Cosmos 1802 Rocket 4.1 00:59:07 42° SSE 01:01:09 64° E 01:07:25 10° NNE
CZ-4B R/B 2.3 01:04:37 39° NW 01:04:37 39° NW 01:06:59 10° NNW
Cosmos 1943 Rocket 2.1 01:03:43 49° SSW 01:05:16 81° ESE 01:10:56 10° NNE
Cosmos 2173 Rocket 4.0 01:03:34 44° S 01:05:44 77° E 01:12:08 10° NNE
Cosmos 1500 3.3 01:08:34 66° ENE 01:08:34 66° ENE 01:12:11 10° NNE
Landsat 5 3.6 01:08:57 58° WSW 01:09:14 60° WSW 01:13:22 10° NNW
Cosmos 2297 Rocket 3.9 01:04:56 10° NNW 01:09:49 28° NE 01:14:39 10° ESE
Cosmos 1515 4.0 01:11:49 10° NNW 01:15:30 55° W 01:15:30 55° W
Cosmos 1606 Rocket 4.1 01:18:16 42° ESE 01:18:35 43° E 01:22:42 10° NNE
H-2A R/B 2.9 01:15:04 10° N 01:19:36 63° WNW 01:20:28 51° WSW
Cosmos 1689 Rocket 3.9 01:20:28 28° WNW 01:20:28 28° WNW 01:22:35 10° NNW
Cosmos 968 Rocket 3.7 01:16:50 10° NNW 01:21:56 53° WSW 01:22:45 48° SW
Uosat 12 SS-18 rocket 4.3 01:19:10 10° NW 01:23:42 75° NE 01:25:24 41° SE
Cosmos 1725 Rocket 4.3 01:23:22 39° SSE 01:25:26 56° E 01:31:28 10° NNE
ISS -1.2 01:23:17 10° WNW 01:24:29 20° WNW 01:24:29 20° WNW
NOSS 3-3 (A) 4.2 01:32:39 43° S 01:34:22 57° ESE 01:41:00 10° NE
NOSS 3-3 (C) 4.2 01:32:44 43° S 01:34:28 56° ESE 01:41:05 10° NE
ATLAS CENTAUR R/B 4.0 01:34:29 12° ESE 01:34:38 13° ESE 01:36:42 10° E
GP-B 3.6 01:33:47 10° N 01:38:04 48° W 01:38:42 44° WSW
Tsikada Rocket 4.0 01:32:12 10° N 01:38:33 84° E 01:40:58 41° SSE
Cosmos 1570 Rocket 4.4 01:37:44 43° SE 01:38:48 49° ESE 01:43:56 10° NNE
Cosmos 1953 Rocket 3.4 01:39:35 10° NNW 01:43:56 79° W 01:44:20 71° SSW
Cosmos 2058 Rocket 3.4 01:43:37 48° ESE 01:44:12 52° E 01:48:33 10° NNE
Lacrosse 5 rocket 3.1 01:46:52 10° WNW 01:50:08 28° NNW 01:53:21 10° NE
ATLAS 2AS CENTAUR R/B 3.7 01:43:54 10° NW 01:51:04 36° WSW 01:53:00 32° SW
Cosmos 1825 Rocket 4.0 01:48:34 10° NNW 01:52:53 48° W 01:53:16 47° WSW
Cosmos 1726 Rocket 3.3 01:53:18 70° S 01:53:47 84° E 01:58:08 10° N
CZ-2C R/B 3.0 01:53:12 52° SSW 01:54:04 62° WSW 01:58:52 10° NNW
USA 234 3.7 01:50:07 10° ENE 01:56:34 62° NNW 02:02:59 10° W
Aureole 2 4.5 02:02:03 78° N 02:02:03 78° N 02:05:42 10° NNE
Cosmos 1340 2.7 02:03:07 10° NNW 02:06:49 65° W 02:06:49 65° W
Cosmos 1758 Rocket 3.8 02:03:03 10° NNW 02:07:28 54° W 02:07:57 51° WSW
Cosmos 1743 3.5 02:13:51 38° W 02:14:09 39° WNW 02:17:49 10° N
CZ-2C R/B 3.2 02:11:59 10° N 02:16:58 46° WNW 02:18:57 32° WSW
Lacrosse 5 3.3 02:12:47 10° W 02:17:31 37° N 02:22:16 10° ENE
Cosmos 220 Rocket 4.1 02:14:41 10° NNW 02:19:02 72° ENE 02:20:20 43° SE
Meteor 2-17 Rocket 4.4 02:19:03 39° S 02:21:30 84° E 02:27:39 10° N
Cosmos 1697 Rocket 4.5 02:19:13 15° SE 02:21:43 20° E 02:25:46 10° NE
Cosmos 2369 Rocket 4.4 02:18:43 10° W 02:22:41 19° NW 02:26:40 10° N
PSLV R/B 4.4 02:22:47 43° WSW 02:22:55 43° W 02:26:56 10° NNW
Helios 1A Rocket 4.5 02:20:52 10° N 02:24:20 26° WNW 02:25:28 23° W
Cosmos 2082 3.6 02:19:14 10° NNW 02:24:54 81° WSW 02:27:24 35° SSE
Cosmos 2208 Rocket 4.0 02:25:46 44° SW 02:27:28 77° WNW 02:32:47 10° NNE
Cosmos 2233 Rocket 3.9 02:25:24 39° SSW 02:27:52 84° W 02:34:04 10° N
Cosmos 1980 Rocket 4.4 02:28:21 10° SE 02:31:24 15° E 02:34:28 10° ENE
Meteor 2-9 Rocket 4.3 02:29:49 40° SSW 02:32:02 77° WNW 02:37:50 10° N
Cosmos 2228 3.0 02:32:14 55° SW 02:33:03 73° W 02:37:21 10° N
Cosmos 2227 Rocket 2.2 02:27:46 10° NNW 02:33:25 68° WSW 02:35:39 37° S
Cosmos 2298 Rocket 3.9 02:28:23 10° NNW 02:33:42 81° WSW 02:35:54 36° SSE
Cosmos 1656 Rocket 4.4 02:32:46 26° WSW 02:35:35 46° NW 02:41:01 10° NNE
Cosmos 1666 3.1 02:35:46 45° W 02:36:06 47° WNW 02:39:47 10° N
SeaSat 1 2.4 02:34:34 41° S 02:36:11 67° WSW 02:41:08 10° NW
Cosmos 1842 4.2 02:32:54 10° NNW 02:36:29 33° W 02:36:31 33° W
Cosmos 858 Rocket 4.4 02:39:09 10° NNW 02:44:25 81° WSW 02:46:53 32° SSE
NOSS 2-1 (D) 3.9 02:45:51 40° SSE 02:46:35 45° ESE 02:50:59 10° NE
NPP 4.2 02:42:10 10° NNE 02:47:27 51° E 02:50:08 27° SSE
NOSS 2-1 (C) 3.9 02:47:15 40° SSE 02:48:01 45° ESE 02:52:25 10° NE
Cosmos 468 Rocket 4.3 02:46:04 33° SSE 02:48:06 54° ESE 02:53:07 10° NNE
USA 161 4.1 02:47:55 12° ESE 02:49:32 17° ENE 02:51:27 10° NNE
Cosmos 1943 Rocket 4.0 02:45:17 10° W 02:49:44 24° NW 02:54:13 10° N
Cosmos 2297 Rocket 2.2 02:48:42 10° NNW 02:54:19 65° WSW 02:57:06 30° S
Cosmos 2278 3.6 02:56:15 35° SSW 02:58:47 89° WNW 03:04:31 10° NNE
Cosmos 405 Rocket 2.7 02:56:23 10° NNW 03:00:27 71° W 03:01:28 47° SSW
Cosmos 2369 3.7 02:58:43 34° SSW 03:01:17 86° ESE 03:07:01 10° NNE
Meteor 2-5 Rocket 3.8 02:56:53 10° NNW 03:02:45 75° W 03:06:03 28° S
Landsat 4 3.7 03:02:01 49° SSW 03:02:51 66° WSW 03:06:41 10° NNW
NOSS 2-1 (E) 3.7 03:01:56 41° S 03:03:06 58° SE 03:07:48 10° NE
SL-08 R/B 3.2 03:03:13 32° S 03:05:21 79° WSW 03:10:02 10° NNW
ERS-2 3.5 03:03:32 10° NNE 03:06:58 33° E 03:08:37 23° SE
Cosmos 2150 Rocket 4.3 03:05:46 10° NNW 03:10:45 46° WSW 03:12:34 33° SSW
Cosmos 1898 Rocket 3.9 03:07:24 10° NW 03:12:29 45° WSW 03:14:25 32° SSW
ATLAS CENTAUR R/B 1.9 03:10:48 34° SSW 03:12:57 71° SE 03:17:54 10° NE
Cosmos 1766 Rocket 4.5 03:08:48 10° N 03:13:05 47° ENE 03:16:59 12° SSE
NOSS 3-4 (A) 3.8 03:08:01 10° NW 03:14:46 57° WSW 03:21:54 10° SSE
NOSS 3-4 (C) 3.8 03:08:07 10° NW 03:14:54 57° WSW 03:22:05 10° SSE
Cosmos 1891 Rocket 4.4 03:11:45 26° S 03:15:24 84° E 03:21:36 10° N
Cosmos 1812 Rocket 3.8 03:15:17 35° SW 03:16:55 57° WNW 03:21:20 10° N
Cosmos 841 Rocket 4.3 03:14:44 21° SSE 03:17:53 44° ESE 03:22:53 10° NE
Cosmos 1125 Rocket 4.2 03:13:34 10° NNW 03:18:42 55° ENE 03:23:48 10° SE
Cosmos 1766 4.1 03:17:23 23° SSE 03:19:30 45° E 03:23:16 10° NNE
Cosmos 1937 Rocket 3.7 03:15:26 10° NNW 03:20:27 51° WSW 03:22:56 28° SSW
Cosmos 1763 Rocket 4.0 03:18:52 23° S 03:21:53 53° ESE 03:26:54 10° NNE
Cosmos 2263 Rocket 4.5 03:18:48 10° NNW 03:23:26 26° NE 03:28:02 10° E
Cosmos 1461 3.3 03:24:19 10° NW 03:28:31 63° NE 03:32:31 10° SE
Cosmos 1656 3.7 03:26:45 27° SSW 03:30:01 83° ESE 03:35:42 10° NNE
Lacrosse 5 rocket 3.3 03:27:02 10° NW 03:30:11 26° N 03:33:19 10° ENE
Nadezhda 4 Rocket 3.9 03:25:13 10° N 03:31:27 85° W 03:36:47 15° S
Cosmos 2034 Rocket 4.0 03:28:10 24° SSW 03:32:07 78° W 03:38:20 10° N
Cosmos 1441 Rocket 3.3 03:28:21 10° N 03:32:23 80° E 03:35:13 19° SSE
IRS-1C 4.1 03:27:48 10° NNE 03:33:11 85° ESE 03:36:38 23° SSW
CZ-2D R/B 3.3 03:28:47 10° NNE 03:33:53 38° E 03:38:54 10° SSE
Meteor 1-24 Rocket 3.8 03:30:36 10° NNW 03:36:17 68° W 03:40:46 18° S
BREEZE-M DEB (TANK) 4.4 03:35:13 18° S 03:37:12 23° SE 03:40:31 10° E
USA 234 4.3 03:32:52 10° ENE 03:39:02 45° N 03:45:12 10° WNW
BREEZE-M DEB (TANK) 4.4 03:32:10 10° WNW 03:39:10 22° WSW 03:39:42 22° SW
ARIANE 5 R/B 3.1 03:35:49 10° NNE 03:40:52 55° E 03:45:08 15° S
SL-24 R/B 4.2 03:37:30 12° SSE 03:41:51 89° ENE 03:46:16 10° NNW
Cosmos 1707 3.7 03:38:29 10° NNW 03:42:00 32° W 03:43:05 27° WSW
IRAS Rocket 4.3 03:36:30 10° NNE 03:42:10 82° WNW 03:46:00 22° SSW
Meteor 1-22 Rocket 4.4 03:40:19 20° S 03:44:45 89° WNW 03:50:54 10° NNE
Cosmos 1805 4.4 03:43:42 12° SSE 03:46:57 40° E 03:50:39 10° NNE
EO 1 Del DPAF 3.8 03:43:34 10° SSE 03:47:22 59° ENE 03:51:13 10° N
Cosmos 2227 4.2 03:42:03 10° NNW 03:47:51 86° WSW 03:53:37 10° SSE
SL-16 R/B 2.5 03:45:36 10° SSE 03:51:47 86° WSW 03:58:00 10° NNW
GEOS 3 Rocket 3.6 03:49:09 10° SE 03:54:22 88° NE 03:59:34 10° NW
In-Cosmos 22 4.1 03:49:11 10° NNW 03:54:30 87° ENE 03:59:49 10° SSE
Cosmos 1758 3.9 03:53:04 14° S 03:56:22 56° E 04:00:18 10° NNE
ADEOS 3.6 03:52:47 10° NNE 03:58:01 74° WNW 04:01:52 18° SSW
Cosmos 1953 2.7 03:56:01 15° S 03:59:20 63° E 04:03:23 10° NNE
Lacrosse 5 3.4 03:56:41 10° WNW 04:01:28 38° NNE 04:06:13 10° E
Meteor 2-12 Rocket 4.5 03:57:11 18° SSW 04:01:49 70° WNW 04:07:54 10° N
Cosmos 2026 Rocket 4.3 03:55:44 10° N 04:02:07 72° E 04:08:21 10° SSE
Cosmos 1076 Rocket 3.8 03:59:10 10° NNW 04:03:20 48° W 04:06:17 18° SSW
Spot 4 Rocket 4.1 03:58:52 10° N 04:04:03 73° WNW 04:08:03 17° SSW
Cosmos 1697 Rocket 2.8 04:00:57 19° SW 04:05:05 75° WNW 04:10:47 10° NNE
Resurs 1-4 Rocket 2.3 04:00:39 10° NNE 04:05:56 69° ESE 04:11:01 11° S
Cosmos 1674 3.9 04:02:38 10° N 04:06:16 42° ENE 04:09:51 10° SSE
BREEZE-M DEB (TANK) 2.7 04:03:37 16° WSW 04:07:25 60° SSE 04:09:50 10° E
IRS-1D 3.4 04:08:23 10° NNE 04:13:23 88° WNW 04:17:55 13° SSW
Cosmos 2195 Rocket 4.4 04:07:24 10° N 04:13:35 86° W 04:19:41 10° S
Cosmos 1980 Rocket 2.2 04:09:54 16° SSW 04:14:31 85° ESE 04:20:14 10° NNE
SeaSat 1 4.4 04:14:21 11° WSW 04:14:34 11° W 04:15:37 10° W
NOSS 7 (H) 4.3 04:12:38 21° SW 04:14:38 84° SE 04:18:15 10° NE
EP 1 4.1 04:13:50 26° SW 04:15:06 89° NW 04:17:58 10° NE
Cosmos 1634 Rocket 4.0 04:10:05 10° S 04:16:21 90° SW 04:22:44 10° N
Cosmos 2227 Rocket 4.1 04:14:49 10° WNW 04:16:22 11° W 04:17:25 11° WSW
Cosmos 1500 Rocket 3.6 04:15:10 10° N 04:19:36 81° ENE 04:23:58 10° SSE
USA 161 2.8 04:19:04 20° WSW 04:19:46 22° W 04:22:01 10° NW
BREEZE-M DEB (TANK) 2.9 04:19:43 10° W 04:23:19 88° N 04:27:49 10° E
Cosmos 1092 Rocket 4.3 04:17:30 10° NNW 04:23:32 49° W 04:29:34 10° SSW
Meteor 1-21 Rocket 4.3 04:17:55 10° NNW 04:23:49 70° W 04:29:41 10° S
Cosmos 332 Rocket 4.2 04:20:16 10° S 04:24:59 60° ESE 04:29:47 10° NNE
Cosmos 1743 Rocket 3.6 04:21:12 10° NNW 04:25:30 62° W 04:29:49 10° S
Cosmos 1378 4.5 04:23:08 10° NW 04:26:13 24° W 04:28:17 15° SW
Cosmos 2322 Rocket 3.0 04:22:30 10° S 04:27:50 47° ESE 04:33:13 10° NE
Gblst 52 Del rocket 4.3 04:25:22 10° WNW 04:31:47 87° SSW 04:37:28 10° ESE
Cosmos 1437 3.3 04:29:09 10° NNW 04:32:19 40° W 04:35:28 10° SSW
RESURS DK-1 2.7 04:31:54 10° NW 04:35:52 45° WSW 04:39:49 10° S
Cosmos 2297 Rocket 4.1 04:36:19 10° W 04:37:14 10° W 04:38:08 10° WSW
Cosmos-2242 3.3 04:33:41 12° SSW 04:37:33 52° WNW 04:41:46 10° N
Cosmos 372 Rocket 4.0 04:33:29 10° NNW 04:38:30 57° WSW 04:43:27 10° S
UNK 4.4 04:34:27 10° SSW 04:38:46 36° W 04:43:07 10° NNW
Cosmos 2221 4.3 04:35:06 10° SSE 04:38:52 31° E 04:42:41 10° NNE
MOS 1-B 4.4 04:34:18 10° NNE 04:40:10 84° WNW 04:45:59 10° SSW
ERS-2 3.7 04:37:37 10° N 04:40:37 23° WNW 04:43:27 11° WSW
MTI 4.1 04:38:18 10° S 04:41:30 47° W 04:44:43 10° NNW
Okean O Rocket 2.1 04:39:07 10° NNE 04:43:30 60° ESE 04:47:51 10° S
Cosmos 371 Rocket 3.8 04:38:54 10° S 04:43:38 60° ESE 04:48:22 10° NNE
Cosmos 2084 3.7 04:41:06 10° NW 04:45:07 71° NE 04:49:20 10° SE
Cosmos 1428 Rocket 4.5 04:39:30 10° N 04:45:42 85° W 04:51:48 10° S
Cosmos 1470 3.0 04:41:47 10° S 04:45:44 77° E 04:49:44 10° NNE
Aureole 1 Rocket 4.5 04:45:05 10° SSW 04:51:29 83° ESE 04:59:36 10° NNE
ATLAS CENTAUR R/B 3.2 04:48:07 10° W 04:52:31 29° NW 04:56:48 10° NNE
CZ-2C R/B 3.7 04:48:40 10° S 04:53:19 70° WSW 04:57:54 10° NNW
PSLV R/B 3.9 04:49:58 10° NNE 04:53:51 76° ESE 04:57:37 10° S
USA 81 4.1 04:48:41 10° SSW 04:53:55 66° W 04:59:12 10° N
Cosmos 1346 4.4 04:54:08 10° N 04:57:04 44° ENE 05:00:00 10° SSE
SL-16 R/B 2.4 04:57:08 10° SSW 05:02:47 79° ESE 05:08:30 10° NNE
Cosmos 2360 4.5 04:59:53 10° SW 05:05:32 60° WNW 05:11:13 10° NNE
CZ-2D R/B 3.8 05:01:28 10° N 05:05:45 58° WNW 05:10:05 10° SSW
Cosmos 2263 Rocket 2.2 05:02:21 10° NNW 05:07:57 73° WSW 05:13:29 10° SSE
Cosmos 2279 Rocket 4.1 05:01:47 10° SSW 05:07:59 65° WNW 05:14:14 10° N
